TimeCDT,TemperatureF,Dew PointF,Humidity,Sea Level PressureIn,VisibilityMPH,Wind Direction,Wind SpeedMPH,Gust SpeedMPH,PrecipitationIn,Events,Conditions,WindDirDegrees,DateUTC
12:53 AM,52.0,26.1,37,29.99,10.0,NNW,10.4,-,N/A,,Clear,340,2012-10-19 05:53:00
1:53 AM,51.1,23.0,33,30.00,10.0,NNW,11.5,18.4,N/A,,Clear,330,2012-10-19 06:53:00
2:53 AM,51.1,19.9,29,30.00,10.0,North,15.0,-,N/A,,Clear,350,2012-10-19 07:53:00
3:53 AM,52.0,18.0,26,30.00,10.0,North,16.1,-,N/A,,Clear,350,2012-10-19 08:53:00
4:53 AM,50.0,16.0,26,29.99,10.0,NNW,10.4,-,N/A,,Clear,340,2012-10-19 09:53:00
5:53 AM,46.9,18.0,32,30.00,10.0,North,13.8,-,N/A,,Clear,350,2012-10-19 10:53:00
6:53 AM,48.0,16.0,28,30.01,10.0,NW,9.2,-,N/A,,Clear,320,2012-10-19 11:53:00
7:53 AM,43.0,18.0,37,30.04,10.0,NW,8.1,-,N/A,,Clear,310,2012-10-19 12:53:00
8:53 AM,53.1,17.1,24,30.04,10.0,NW,6.9,-,N/A,,Clear,310,2012-10-19 13:53:00
9:53 AM,59.0,16.0,19,30.04,10.0,NNW,17.3,24.2,N/A,,Clear,340,2012-10-19 14:53:00
10:53 AM,63.0,17.1,17,30.04,10.0,North,18.4,-,N/A,,Clear,350,2012-10-19 15:53:00
11:53 AM,69.1,17.1,14,30.02,10.0,NNW,19.6,27.6,N/A,,Clear,340,2012-10-19 16:53:00
12:53 PM,72.0,17.1,12,30.00,10.0,NW,13.8,27.6,N/A,,Clear,320,2012-10-19 17:53:00
1:53 PM,73.9,19.0,13,29.96,10.0,West,15.0,20.7,N/A,,Clear,280,2012-10-19 18:53:00
2:53 PM,75.9,21.0,13,29.91,10.0,WNW,11.5,20.7,N/A,,Clear,300,2012-10-19 19:53:00
3:53 PM,77.0,24.1,14,29.88,10.0,West,15.0,19.6,N/A,,Clear,270,2012-10-19 20:53:00
4:53 PM,75.9,25.0,15,29.87,10.0,West,11.5,-,N/A,,Clear,270,2012-10-19 21:53:00
5:53 PM,75.0,27.0,17,29.86,10.0,SW,8.1,-,N/A,,Clear,230,2012-10-19 22:53:00
6:53 PM,68.0,30.9,25,29.86,10.0,SSW,6.9,-,N/A,,Clear,200,2012-10-19 23:53:00
7:53 PM,59.0,30.9,35,29.87,10.0,South,8.1,-,N/A,,Clear,180,2012-10-20 00:53:00
9:53 PM,62.1,32.0,32,29.86,10.0,South,6.9,-,N/A,,Clear,180,2012-10-20 02:53:00
10:53 PM,62.1,32.0,32,29.84,10.0,SSE,6.9,-,N/A,,Clear,160,2012-10-20 03:53:00
11:53 PM,59.0,33.1,38,29.83,10.0,South,6.9,-,N/A,,Clear,170,2012-10-20 04:53:00